Retour au catalogue

COSMOS 1275 DEB

ActifPO
NORAD 12703·DEBRIS·🇷🇺 Russia

Lancé Jun 4, 1981 depuis Plesetsk Cosmodrome

Loading…

Prochains Passages (prochaines 24 heures)

TLE

FraisSource: Space-Track

Époque: Sep 14, 2026, 14:24 UTC

1 12703U 81053AX  26257.60023344  .00000698  00000-0  37372-3 0  9992
2 12703  82.9666 126.7333 0015792  72.9116 287.3788 14.11786348299722

Suivez COSMOS 1275 DEB en temps réel avec AllMySat

Download on the App Store